Location: Seattle
(47.6064°N, 122.3308°W)
Time: 14:38:24
(UTC-08:00)

SR - Pass Details

Date: 26 November 2020
Orbit: 575 x 880 km, 66.7° (Epoch: 23 January)

Event Time Altitude Azimuth Distance (km) Brightness Sun altitude
Rises 18:54:39 0° 201° (SSW) 2,792 ? -25.1°
Reaches altitude 10° 18:56:50 10° 198° (SSW) 1,916 ? -25.4°
Enters shadow 18:58:57 28° 187° (S) 1,134 ? -25.8°
